Regional Weather Roundup
Issued by NWS

Home | Current Version | Previous Version | Graphics & Text | Print | Product List | Glossary On
Versions: 1 2 3 4 5 6 7 8 9 10 11 12 13 14 15 16 17 18 19 20 21 22 23 24 25 26 27 28 29 30 31 32 33 34 35 36 37 38 39 40 41 42 43 44 45 46 47 48 49 50
000
ASUS45 KTFX 190019
RWRMT
MONTANA HOURLY WEATHER ROUNDUP
NATIONAL WEATHER SERVICE GREAT FALLS MT
619 PM MDT THU SEP 18 2014

NOTE: "FAIR" INDICATES FEW OR NO CLOUDS BELOW 12000 FEET WITH NO
SIGNIFICANT WEATHER AND/OR OBSTRUCTIONS TO VISIBILITY.

* THESE STATIONS ARE NOT UNDER NWS QUALITY CONTROL. THEY DO NOT
   REPORT WEATHER SUCH AS PRECIPITATION OR FOG.

MTZ001>007-043-190100-
WEST OF THE DIVIDE
CITY           SKY/WX    TMP DP  RH WIND       PRES   REMARKS
KALISPELL      SMOKE     75  41  30 W8        29.71R
MISSOULA       HAZE      81  43  26 W15       29.75R
BUTTE          PTCLDY    72  39  30 SW10      29.87S
MULLAN PASS    CLOUDY    61  39  44 VRB5      29.92S
* ESSEX        N/A       64  53  68 W1         N/A
* LINCOLN      N/A       75  43  32 SW6G14     N/A
* LOOKOUT PASS N/A       66  41  40 SE8G16     N/A
* POLSON       N/A       72  41  33 W2G9       N/A
* RONAN APT    CLOUDY    75  41  30 SW6        N/A
* SEELEY LAKE  N/A       75  45  34 SW6        N/A
* THOMP F APT  MOCLDY    65  48  54 NW5G18     N/A
$$

MTZ008-052>055-190100-
SOUTHWEST MONTANA
CITY           SKY/WX    TMP DP  RH WIND       PRES   REMARKS
BOZEMAN        CLOUDY    66  55  68 SE12      29.83F
DILLON         PTCLDY    72  45  38 S14       29.86S
W YELLOWSTONE  CLOUDY    63  48  58 N3        29.98R
* THREE FORKS  MOCLDY    73  73 100 N/A        N/A
* BOULDER HILL N/A       68  46  45 SW10G19    N/A
* MONIDA PASS  N/A       60  53  78 NW2        N/A
* RAYNOLDS PAS N/A       61  58  90 NW8        N/A
* WHITEHALL    N/A       73  57  57 S5G12      N/A
* WISE RIVER   N/A       72  35  26 W12G22     N/A
$$

MTZ009>010-012-014-046-048-049-054-190100-
EAST SLOPES AND CENTRAL MONTANA
CITY           SKY/WX    TMP DP  RH WIND       PRES   REMARKS
CUT BANK       MOCLDY    73  45  37 W21G30    29.69R
GREAT FALLS    HAZE      75  46  36 SW15G24   29.69R
HELENA         FAIR      73  55  53 E13       29.74F
MALMSTROM AFB  PTCLDY    77  43  30 SW20G26   29.70F
* CONRAD       PTCLDY    79  46  31 W7         N/A
* EAST GLACIER N/A       67  39  36 NW8G21     N/A
* MONARCH      N/A       70  43  38 SW14G20    N/A
* PENDROY      N/A       73  45  37 NW14       N/A
* ROGERS PASS  N/A       69  41  36 SE9G17     N/A
* SAINT MARY   N/A       71  39  31 SW8G20     N/A
* SWEET GRASS  N/A       74  41  31 W13G20     N/A
* WHITE SULPH  N/A       69  52  55 S11G20     N/A
$$

MTZ011-013-016-021-035-040-045-047-050-051-190100-
NORTH CENTRAL MONTANA
CITY           SKY/WX    TMP DP  RH WIND       PRES   REMARKS
HAVRE          MOCLDY    79  48  34 SW13      29.61R
LEWISTOWN      MOCLDY    72  54  53 W6        29.75S
* CHINOOK      CLOUDY    79  48  34 SW8       29.59S
* CHESTER      N/A       80  42  26 SW11G20    N/A
* DENTON       N/A       74  51  45 SW4        N/A
* GEYSER       N/A       74  51  45 SW7G12     N/A
* JUDITH GAP   N/A       68  55  63 SE5        N/A
* LOMA         N/A       80  52  38 SW9G16     N/A
$$

MTZ017>020-022>027-061-062-190100-
NORTHEAST MONTANA
CITY           SKY/WX    TMP DP  RH WIND       PRES   REMARKS
GLASGOW        MOCLDY    75  54  48 W3        29.60S
GLENDIVE       CLOUDY    73  55  53 S5        29.67R
JORDAN         CLOUDY    75  59  58 N8        29.64S
SIDNEY         CLOUDY   N/A N/A N/A SW3       29.63R
WOLF POINT     CLOUDY    73  55  53 SW7       29.60S
* BEAVER HILL  N/A       74  53  48 S9         N/A
* CIRCLE       N/A       77  59  54 N/A        N/A
* LINDSAY DVD  N/A       76  52  43 W6         N/A
* NAVAJO       N/A       75  51  43 SW14       N/A
* SACO         N/A       74  57  55 S8         N/A
$$

MTZ028>042-056>058-190100-
SOUTHCENTRAL AND SOUTHEAST MONTANA
CITY           SKY/WX    TMP DP  RH WIND       PRES   REMARKS
BAKER          CLOUDY    73  54  51 S9        29.73S
BILLINGS       TSTM      64  57  78 SW18G26   29.81R
LIVINGSTON     CLOUDY    64  52  65 S14G25    29.82F
MILES CITY     CLOUDY    75  55  50 SW8       29.68R
* LAUREL APT   CLOUDY    64  55  73 SW5        N/A
* ROUNDUP APT  CLOUDY    72  55  55 N/A        N/A
* ALZADA       N/A       81  52  37 N7G12      N/A
* HYSHAM       N/A       72  51  48 W3G9       N/A
* LAME DEER    N/A       73  48  41 W9         N/A
* REED POINT   N/A       63  55  75 E4G12      N/A
* ROSCOE HILL  N/A       56  51  83 S9         N/A
$$

REGIONAL REPORTS...DAKOTAS
CITY           SKY/WX    TMP DP  RH WIND       PRES   REMARKS
WILLISTON      CLOUDY    77  52  42 SW9       29.59S
DICKINSON      LGT RAIN  72  61  68 CALM      29.68F
BEACH          N/A       73  50  44 SW12      29.68F
CROSBY         CLEAR     73  55  53 SW9       29.56S
TIOGA          CLEAR     75  54  48 SW12G17   29.63S
WATFORD CITY   CLEAR     77  50  39 SW10      29.60F
BISMARCK       CLOUDY    75  63  66 S10       29.69F
GRAND FORKS    MOCLDY    72  57  59 S13       29.75S
FARGO          MOCLDY    75  59  58 S13G23    29.79F
RAPID CITY     MOCLDY    84  54  36 SE14      29.72F
$$

REGIONAL REPORTS...WYOMING/IDAHO/WASHINGTON
CITY           SKY/WX    TMP DP  RH WIND       PRES   REMARKS
GILLETTE       MOCLDY    77  46  33 NE14      29.81F
SHERIDAN       MOCLDY    72  55  55 S7        29.78F
CODY           CLOUDY   N/A N/A N/A N/A        N/A
YELLOWSTONE LA CLOUDY    57  48  72 CALM      30.08S
SALMON         PTCLDY    72  54  53 N8        29.78S
MULLAN PASS    CLOUDY    61  39  44 VRB5      29.92S
SAND POINT     N/A       68  52  57 CALM      29.73R
SPOKANE        DRIZZLE   77  46  33 SW21      29.74S
$$

REGIONAL REPORTS...ALBERTA
CITY           SKY/WX    TMP DP  RH WIND       PRES   REMARKS
CALGARY        LGT RAIN  61  50  67 N10       29.62R
LETHBRIDGE     MOCLDY    73  41  32 W16G26    29.61R
MEDICINE HAT   SMOKE     75  54  48 SW7       29.51F VSB 2 1/2
EDMONTON       MOCLDY    64  50  61 W2        29.58S
WATERTON GATE  N/A       68  39  35 W13G22     N/A
CARDSTON       N/A       70  43  38 W12G18     N/A
MILK RIVER     N/A       75  43  32 W14        N/A
$$

REGIONAL REPORTS...SASKATCHEWAN
CITY           SKY/WX    TMP DP  RH WIND       PRES   REMARKS
SWIFT CURRENT  HAZE      72  48  43 W7        29.53F
MOOSE JAW      CLOUDY   N/A N/A N/A W8         N/A
REGINA         CLOUDY    73  57  57 SW7       29.49F
VAL MARIE      N/A       66  54  65 SW7        N/A
ASSINIBOIA     N/A       73  52  48 SW7        N/A
CORONACH       N/A       72  50  46 SW10       N/A

$$



USA.gov is the U.S. government's official web portal to all federal, state and local government web resources and services.